Location: Plum
(40.5000°N, 79.7500°W)
Time: 05:50:20
(UTC-05:00)

MOZ.5/SAFIR/RUBIN 5/SL-8 - Visible Passes

Search period start: 17 January 2017 00:00
Search period end: 27 January 2017 00:00
Orbit: 679 x 706 km, 97.9° (Epoch: 16 January)

Date Brightness Start Highest point End Pass type
(mag) Time Alt. Az. Time Alt. Az. Time Alt. Az.
18 Jan 6.7 18:05:54 10° NW 18:07:16 11° WNW 18:08:39 10° WNW visible
20 Jan 6.4 17:46:26 10° NNW 17:49:24 17° WNW 17:52:21 10° WSW visible
23 Jan 6.9 18:10:24 10° NW 18:10:42 10° WNW 18:11:00 10° WNW visible
